Regional Weather Roundup
Issued by NWS

Home | Current Version | Previous Version | Graphics & Text | Print | Product List | Glossary On
Versions: 1 2 3 4 5 6 7 8 9 10 11 12 13 14 15 16 17 18 19 20 21 22 23 24 25 26 27 28 29 30 31 32 33 34 35 36 37 38 39 40 41 42 43 44 45 46 47 48 49 50
000
ASUS43 KIND 201309
RWRIN

WEATHER ROUNDUP FOR INDIANA
NATIONAL WEATHER SERVICE INDIANAPOLIS IN
800 AM EST FRI JAN 20 2017

NOTE: "FAIR" INDICATES FEW OR NO CLOUDS BELOW 12,000 FEET WITH NO
SIGNIFICANT WEATHER AND/OR OBSTRUCTIONS TO VISIBILITY.

* - STATION DOES NOT REPORT WEATHER SUCH AS PRECIPITATION OR FOG.

+ - STATION NOT QUALITY CONTROLLED BY THE NATIONAL WEATHER SERVICE.
    USE DATA WITH CAUTION...ESPECIALLY DEWPOINT AND RELATIVE
    HUMIDITY OBSERVATIONS.

INZ001>003-010>013-019-020-201400-
NORTHWEST INDIANA

CITY           SKY/WX    TMP DP  RH WIND       PRES   REMARKS
GARY /AIRPORT/ LGT RAIN  39  39 100 NE6       29.62S
KNOX *+        CLOUDY    37  32  81 NE3       29.60S
LA PORTE +     RAIN      37  37  99 NE3       29.62S
MICHIGAN CITY+ DRIZZLE   37  37 100 CALM      29.62S
MONTICELLO +   DRIZZLE   40  39  96 CALM      29.61R
RENSSELAER +   DRIZZLE   39  39 100 CALM      29.61R
VALPARAISO     CLOUDY    38  38 100 NE5       29.61S FOG

$$

LMZ046-743>745-201400-
SOUTHERN LAKE MICHIGAN

STATION/POSITION TIME  TEMP    WIND        PRES    WAVE
                       AIR SEA DIR/SP/G            HT
                 (UTC) (F)     (DEG/KT/KT) (MB)    (FT)
BURNS HARBOR     1240   35      90/  9/ 11 1003.7S
MICHIGAN CITY    1230   34      40/  7/  8   N/A

$$

INZ004-005-014>016-021>024-201400-
NORTH CENTRAL INDIANA

CITY           SKY/WX    TMP DP  RH WIND       PRES   REMARKS
ELKHART        DRIZZLE   37  36  93 CALM      29.61S
GOSHEN         CLOUDY    37  34  89 E6        29.60S FOG
LOGANSPORT +   CLOUDY    39  39 100 CALM      29.61R FOG
PERU/GRISSOM   CLOUDY    40  40 100 CALM      29.58R
ROCHESTER +    CLOUDY    41  41 100 CALM      29.60S FOG
SOUTH BEND     CLOUDY    37  36  96 E5        29.62S FOG
WARSAW +       DRIZZLE   36  34  93 E3        29.60S

$$

INZ006>009-017-018-025>027-201400-
NORTHEAST INDIANA

CITY           SKY/WX    TMP DP  RH WIND       PRES   REMARKS
ANGOLA *+      CLOUDY    36  36 100 E8        29.59F
AUBURN +       DRIZZLE   36  34  93 E9        29.60F
FORT WAYNE     DRIZZLE   39  37  92 E7        29.59F FOG
HUNTINGTON +   CLOUDY    38  37  96 E3        29.59R
KENDALLVILLE + DRIZZLE   35  35 100 E6        29.59F WCI  30

$$

INZ028-029-035-036-043>045-051>053-201400-
WEST CENTRAL INDIANA

CITY           SKY/WX    TMP DP  RH WIND       PRES   REMARKS
CRAWFORDSVL +  CLOUDY    44  44 100 SW5       29.61S
GREENCASTLE +  CLOUDY    48  48 100 SW3       29.63R FOG
LAFAYETTE      CLOUDY    42  42 100 CALM      29.60R FOG
TERRE HAUTE    FOG       49  48  97 SW5       29.63R VSB 3/4

$$

INZ030>032-037>040-046>048-054>057-064-065-201400-
CENTRAL INDIANA

CITY           SKY/WX    TMP DP  RH WIND       PRES   REMARKS
CP ATTERBURY + CLOUDY    52  50  93 SW6       29.64R
COLUMBUS       LGT RAIN  48  48 100 S9        29.64R FOG
FRANKFORT +    DRIZZLE   47  47  97 W9        29.61S
GREENWOOD *+   CLOUDY    52  52 100 SW9G16    29.63R
INDIANAPOLIS   FOG       49  49 100 SW10      29.62R VSB 1/4
-EAGLE CREEK   CLOUDY    49  47  93 W5        29.61R
KOKOMO +       LGT RAIN  41  40  96 CALM      29.61R FOG
MARION +       CLOUDY    41  41 100 SE3       29.60R FOG
MT COMFORT *+  CLOUDY    48  48 100 SW9       29.62R VSB 1
SHELBYVILLE    CLOUDY    50  48  93 SW9       29.62R
ZIONSVILLE +   DRIZZLE   46  46 100 SW10      29.61R

$$

INZ033-034-041-042-049-050-058-059-201400-
EAST CENTRAL INDIANA

CITY           SKY/WX    TMP DP  RH WIND       PRES   REMARKS
MUNCIE         FOG       47  45  93 SW8       29.60R VSB 1

$$

INZ060-061-067>069-081>083-085>088-201400-
SOUTHWEST INDIANA

CITY           SKY/WX    TMP DP  RH WIND       PRES   REMARKS
EVANSVILLE     CLOUDY    54  51  90 SW9       29.68S
HUNTINGBURG *+ CLOUDY    54  52  93 SW14      29.69R
WASHINGTON +   CLOUDY    54  52  93 SW7       29.66R

$$

INZ062-063-066-070>080-084-089>092-201400-
SOUTH CENTRAL AND SOUTHEAST INDIANA

CITY           SKY/WX    TMP DP  RH WIND       PRES   REMARKS
BLOOMINGTON    LGT RAIN  53  51  93 SW9       29.63R FOG
MADISON *+     CLOUDY    54  52  94 S7        29.69R
NORTH VERNON + CLOUDY   N/A N/A N/A SW9       29.65R
SEYMOUR +      CLOUDY    55  52  88 SW15G21   29.66R

$$




USA.gov is the U.S. government's official web portal to all federal, state and local government web resources and services.